TimePDT,TemperatureF,Dew PointF,Humidity,Sea Level PressureIn,VisibilityMPH,Wind Direction,Wind SpeedMPH,Gust SpeedMPH,PrecipitationIn,Events,Conditions,WindDirDegrees,DateUTC
12:15 AM,75.2,28.4,18,29.93,10.0,WNW,4.6,-,N/A,,Clear,300,2012-10-04 07:15:00
12:35 AM,75.2,32.0,21,29.93,10.0,WNW,5.8,-,N/A,,Clear,290,2012-10-04 07:35:00
12:55 AM,77.0,28.4,17,29.94,10.0,WSW,3.5,-,N/A,,Clear,240,2012-10-04 07:55:00
1:15 AM,71.6,35.6,27,29.94,10.0,ENE,3.5,-,N/A,,Clear,70,2012-10-04 08:15:00
1:35 AM,68.0,39.2,35,29.94,10.0,North,4.6,-,N/A,,Clear,360,2012-10-04 08:35:00
1:55 AM,69.8,35.6,28,29.94,10.0,Calm,Calm,-,N/A,,Clear,0,2012-10-04 08:55:00
2:15 AM,69.8,37.4,31,29.94,10.0,NNE,3.5,-,N/A,,Clear,30,2012-10-04 09:15:00
2:35 AM,68.0,35.6,30,29.94,10.0,North,3.5,-,N/A,,Clear,350,2012-10-04 09:35:00
2:55 AM,66.2,41.0,40,29.94,10.0,NNE,6.9,-,N/A,,Clear,20,2012-10-04 09:55:00
3:15 AM,69.8,37.4,31,29.94,10.0,NE,4.6,-,N/A,,Clear,40,2012-10-04 10:15:00
3:35 AM,68.0,35.6,30,29.95,10.0,NNE,5.8,-,N/A,,Clear,30,2012-10-04 10:35:00
3:55 AM,68.0,35.6,30,29.95,10.0,Calm,Calm,-,N/A,,Clear,0,2012-10-04 10:55:00
4:15 AM,66.2,37.4,35,29.95,10.0,Calm,Calm,-,N/A,,Clear,0,2012-10-04 11:15:00
4:35 AM,69.8,35.6,28,29.95,10.0,Calm,Calm,-,N/A,,Clear,0,2012-10-04 11:35:00
4:55 AM,66.2,37.4,35,29.95,10.0,Calm,Calm,-,N/A,,Clear,0,2012-10-04 11:55:00
5:15 AM,71.6,33.8,25,29.96,10.0,East,3.5,-,N/A,,Clear,80,2012-10-04 12:15:00
5:35 AM,66.2,35.6,32,29.96,10.0,Calm,Calm,-,N/A,,Clear,0,2012-10-04 12:35:00
5:55 AM,64.4,37.4,37,29.97,10.0,Calm,Calm,-,N/A,,Clear,0,2012-10-04 12:55:00
6:15 AM,64.4,35.6,34,29.97,10.0,Calm,Calm,-,N/A,,Clear,0,2012-10-04 13:15:00
6:35 AM,64.4,37.4,37,29.98,10.0,Calm,Calm,-,N/A,,Clear,0,2012-10-04 13:35:00
6:55 AM,64.4,37.4,37,29.98,10.0,North,3.5,-,N/A,,Clear,10,2012-10-04 13:55:00
7:15 AM,64.4,37.4,37,29.98,10.0,Calm,Calm,-,N/A,,Clear,0,2012-10-04 14:15:00
7:35 AM,68.0,37.4,33,29.99,10.0,NNW,3.5,-,N/A,,Clear,340,2012-10-04 14:35:00
7:55 AM,71.6,39.2,31,30.00,10.0,NNE,4.6,-,N/A,,Clear,20,2012-10-04 14:55:00
8:15 AM,73.4,37.4,27,30.00,10.0,Calm,Calm,-,N/A,,Clear,0,2012-10-04 15:15:00
8:35 AM,75.2,37.4,25,30.01,10.0,Calm,Calm,-,N/A,,Clear,0,2012-10-04 15:35:00
8:55 AM,77.0,32.0,19,30.02,10.0,Calm,Calm,-,N/A,,Clear,0,2012-10-04 15:55:00
9:15 AM,78.8,32.0,18,30.02,10.0,ESE,3.5,-,N/A,,Clear,110,2012-10-04 16:15:00
9:35 AM,80.6,32.0,17,30.02,10.0,SE,3.5,-,N/A,,Clear,140,2012-10-04 16:35:00
9:55 AM,82.4,32.0,16,30.03,10.0,SSE,5.8,-,N/A,,Clear,160,2012-10-04 16:55:00
10:15 AM,82.4,32.0,16,30.03,10.0,ESE,4.6,-,N/A,,Clear,120,2012-10-04 17:15:00
10:35 AM,84.2,32.0,15,30.03,10.0,Calm,Calm,-,N/A,,Clear,0,2012-10-04 17:35:00
10:55 AM,84.2,32.0,15,30.03,10.0,South,4.6,-,N/A,,Clear,180,2012-10-04 17:55:00
11:35 AM,84.2,32.0,15,30.02,10.0,SE,5.8,-,N/A,,Clear,140,2012-10-04 18:35:00
11:55 AM,86.0,32.0,14,30.01,10.0,Calm,Calm,-,N/A,,Clear,0,2012-10-04 18:55:00
12:15 PM,86.0,32.0,14,30.00,10.0,East,3.5,-,N/A,,Clear,80,2012-10-04 19:15:00
12:35 PM,89.6,32.0,13,29.99,10.0,South,5.8,-,N/A,,Clear,190,2012-10-04 19:35:00
12:55 PM,89.6,32.0,13,29.98,10.0,SSE,8.1,19.6,N/A,,Clear,160,2012-10-04 19:55:00
1:15 PM,89.6,32.0,13,29.97,10.0,WNW,5.8,-,N/A,,Clear,300,2012-10-04 20:15:00
1:35 PM,91.4,32.0,12,29.97,10.0,South,5.8,-,N/A,,Clear,180,2012-10-04 20:35:00
1:55 PM,89.6,32.0,13,29.97,10.0,SSW,3.5,19.6,N/A,,Clear,210,2012-10-04 20:55:00
2:15 PM,89.6,32.0,13,29.96,10.0,South,9.2,-,N/A,,Clear,190,2012-10-04 21:15:00
2:35 PM,89.6,32.0,13,29.95,10.0,South,11.5,-,N/A,,Clear,180,2012-10-04 21:35:00
2:55 PM,91.4,32.0,12,29.95,10.0,South,6.9,-,N/A,,Clear,180,2012-10-04 21:55:00
3:15 PM,91.4,32.0,12,29.94,10.0,SSE,11.5,16.1,N/A,,Clear,160,2012-10-04 22:15:00
3:55 PM,91.4,32.0,12,29.93,10.0,SSE,10.4,-,N/A,,Clear,160,2012-10-04 22:55:00
4:15 PM,91.4,32.0,12,29.92,10.0,SSE,10.4,16.1,N/A,,Clear,160,2012-10-04 23:15:00
4:35 PM,91.4,32.0,12,29.92,10.0,SSE,10.4,-,N/A,,Clear,150,2012-10-04 23:35:00
4:55 PM,91.4,32.0,12,29.92,10.0,SSE,11.5,-,N/A,,Clear,160,2012-10-04 23:55:00
5:15 PM,91.4,30.2,11,29.92,10.0,SW,6.9,-,N/A,,Clear,220,2012-10-05 00:15:00
5:35 PM,89.6,28.4,11,29.92,10.0,SW,11.5,-,N/A,,Clear,230,2012-10-05 00:35:00
5:55 PM,89.6,30.2,12,29.92,10.0,SW,10.4,-,N/A,,Clear,230,2012-10-05 00:55:00
6:15 PM,86.0,30.2,13,29.92,10.0,WSW,6.9,-,N/A,,Clear,240,2012-10-05 01:15:00
6:35 PM,84.2,30.2,14,29.92,10.0,WSW,8.1,-,N/A,,Clear,240,2012-10-05 01:35:00
6:55 PM,84.2,28.4,13,29.93,10.0,WSW,8.1,-,N/A,,Clear,250,2012-10-05 01:55:00
7:15 PM,82.4,28.4,14,29.93,10.0,WSW,5.8,-,N/A,,Clear,250,2012-10-05 02:15:00
7:35 PM,82.4,30.2,15,29.94,10.0,South,4.6,-,N/A,,Clear,190,2012-10-05 02:35:00
7:55 PM,80.6,32.0,17,29.94,10.0,ESE,4.6,-,N/A,,Clear,110,2012-10-05 02:55:00
8:15 PM,77.0,37.4,24,29.94,10.0,Calm,Calm,-,N/A,,Clear,0,2012-10-05 03:15:00
8:35 PM,78.8,32.0,18,29.94,10.0,SE,4.6,-,N/A,,Clear,130,2012-10-05 03:35:00
8:55 PM,73.4,39.2,29,29.94,10.0,Calm,Calm,-,N/A,,Clear,0,2012-10-05 03:55:00
9:15 PM,77.0,32.0,19,29.95,10.0,Calm,Calm,-,N/A,,Clear,0,2012-10-05 04:15:00
9:35 PM,78.8,32.0,18,29.95,10.0,Calm,Calm,-,N/A,,Clear,0,2012-10-05 04:35:00
9:55 PM,75.2,35.6,24,29.95,10.0,Calm,Calm,-,N/A,,Clear,0,2012-10-05 04:55:00
10:15 PM,71.6,37.4,29,29.96,10.0,Calm,Calm,-,N/A,,Clear,0,2012-10-05 05:15:00
10:35 PM,69.8,39.2,33,29.96,10.0,Calm,Calm,-,N/A,,Clear,0,2012-10-05 05:35:00
10:55 PM,71.6,39.2,31,29.96,10.0,Calm,Calm,-,N/A,,Clear,0,2012-10-05 05:55:00
11:15 PM,71.6,37.4,29,29.96,10.0,Calm,Calm,-,N/A,,Clear,0,2012-10-05 06:15:00
11:35 PM,75.2,32.0,21,29.96,10.0,South,4.6,-,N/A,,Clear,170,2012-10-05 06:35:00
11:55 PM,77.0,32.0,19,29.96,10.0,Calm,Calm,-,N/A,,Clear,0,2012-10-05 06:55:00